#timestamp,LO_Frequency,Hit,StdDev 
1538071215.5,286047000.1,N
1538071235.3,286047002.8,N
1538071255.1,286047000.3,N
1538071275.9,286047001.2,N
1538071295.7,286047001.9,N
1538071315.6,286047002.0,N
1538071335.4,286047002.7,N
1538071355.2,286047002.5,N
1538071375.1,286046999.7,N
1538071376.0,286046999.7,N
1538071395.8,286047002.4,N
1538071415.6,286047001.5,N
1538071435.5,286047002.0,N
1538071485.3,286047000.1,E
1538071495.3,286046999.8,N
1538071515.1,286047002.7,P
1538071535.8,286047001.9,N
1538071555.7,286047000.0,N
1538071575.5,286047002.8,N
1538071595.3,286047000.1,N
1538071615.2,286047001.4,N
1538071635.0,286047003.5,N
1538071635.9,286047003.5,N
1538071655.8,286047003.7,N
1538071675.6,286047001.9,N
1538071695.4,286047001.7,N
1538071715.3,286047000.2,N
1538071735.1,286047002.2,N
1538071755.8,286047002.1,N
1538071775.7,286047002.0,N
1538071795.5,286047002.7,N
1538071815.4,286046999.8,N
1538071835.2,286047002.2,N
1538071855.0,286046999.8,N
1538071855.9,286046999.8,N
1538071875.8,286047002.3,N
1538071895.6,286047000.8,N
1538071915.4,286047000.9,N
1538071935.3,286047002.3,N
1538071955.1,286047003.9,Y
1538071975.9,286046999.2,P
1538071995.7,286046996.6,N
1538072015.5,286046998.1,N
1538072035.4,286046998.2,N
1538072055.2,286046998.9,N
1538072075.0,286046998.3,N
1538072076.0,286046998.3,N
1538072095.8,286046999.3,N
1538072115.6,286046997.7,N
1538072135.5,286046997.2,N
1538072155.3,286046997.5,N
1538072175.1,286046997.3,N
1538072195.9,286046995.3,Y
1538072215.7,286046996.2,P
1538072235.6,286046994.4,P
1538072255.4,286046995.5,N
1538072275.2,286046996.4,N
1538072295.1,286046991.9,Y
1538072296.0,286046991.9,P
1538072315.8,286046995.2,N
1538072335.6,286046993.8,P
1538072355.5,286046996.3,N
1538072375.3,286046995.5,N
1538072395.2,286046993.3,Y
1538072415.9,286046998.1,P
1538072435.7,286046998.4,N
1538072455.6,286046998.6,N
1538072475.4,286047001.1,N
1538072495.2,286047000.7,N
1538072515.1,286046999.3,N
1538072516.0,286046999.3,N
1538072535.8,286046996.5,N
1538072555.7,286046995.2,N
1538072575.5,286046993.5,Y
1538072595.3,286046996.3,P
1538072615.2,286046993.7,P
1538072635.0,286046994.7,N
1538072635.9,286046994.7,Y
1538072655.8,286046997.4,P
1538072675.6,286046996.2,P
1538072695.4,286046995.6,P
1538072715.3,286046996.7,Y
1538072735.1,286046999.7,P
1538072755.8,286047001.0,N
1538072775.7,286046998.3,N
1538072795.5,286046997.8,N
1538072815.4,286046995.1,Y
1538072835.2,286046997.5,P
1538072855.0,286046998.5,N
1538072855.9,286046998.5,P
1538072875.8,286046999.2,N
1538072895.6,286046997.2,Y
1538072915.4,286047002.7,P
1538072935.3,286047002.4,N
1538072955.1,286046998.2,N
1538072975.9,286047000.7,N
1538072995.7,286046999.5,N
1538073015.5,286046995.7,N
1538073035.4,286046993.7,N
1538073055.2,286046996.4,N
1538073075.0,286046995.4,N
1538073075.9,286046995.4,N
1538073095.8,286046996.2,N
1538073115.6,286046994.5,N
1538073135.5,286046994.3,N
1538073155.3,286046992.6,N
1538073175.1,286046991.1,N
1538073195.9,286046991.1,N
1538073215.7,286046989.1,Y
1538073235.5,286046992.2,P
1538073255.4,286046994.5,N
1538073275.2,286046992.5,P
1538073295.1,286046992.2,Y
1538073296.0,286046992.2,P
1538073315.8,286047000.8,N
1538073335.6,286047000.7,N
1538073355.5,286047000.9,N
1538073375.3,286047000.5,N
1538073395.1,286046998.1,N
1538073415.9,286046999.6,N
1538073435.7,286046996.6,N
1538073455.6,286046997.6,N
1538073475.4,286046997.0,N
1538073495.2,286046996.7,N
1538073515.1,286046999.6,N
1538073516.0,286046999.6,N
1538073535.8,286046995.6,N
1538073555.6,286046997.9,N
1538073575.5,286046997.4,N
1538073595.3,286046997.6,N
1538073615.2,286046997.9,N
1538073635.9,286046994.2,N
1538073655.7,286046994.2,N
1538073675.6,286046992.9,N
1538073695.4,286046992.1,Y
1538073715.2,286046997.9,P
1538073735.1,286046997.0,P
1538073736.0,286046997.0,P
1538073755.8,286046997.0,Y
1538073775.7,286047000.0,P
1538073795.5,286047000.5,N
1538073815.3,286046999.9,N
1538073835.2,286046998.2,N
1538073855.0,286046998.2,N
1538073855.9,286046998.2,N
1538073875.7,286046999.2,N
1538073895.6,286046998.3,N
1538073915.4,286046997.3,N
1538073935.3,286046998.8,N
1538073955.1,286046999.4,N
1538073956.0,286046999.4,N
1538073975.8,286046998.9,N
1538073995.7,286046999.3,N
1538074015.5,286046998.7,N
1538074035.3,286046997.0,Y
1538074055.2,286047000.8,P
1538074075.0,286047000.9,N
1538074075.9,286047000.9,N
1538074095.8,286047000.5,N
1538074115.6,286047001.1,N
1538074135.4,286046998.6,N
1538074155.3,286046999.0,N
1538074175.1,286046996.5,Y
1538074195.8,286046996.9,P
1538074215.7,286046997.7,N
1538074235.5,286046997.8,N
1538074255.4,286046997.4,N
1538074275.2,286046997.4,N
1538074295.0,286046995.2,Y
1538074295.9,286046995.2,P
1538074315.8,286047001.1,N
1538074335.6,286046998.5,N
1538074355.5,286046998.2,N
1538074375.3,286047000.7,N
1538074395.1,286046998.9,N
1538074415.9,286047002.3,N
1538074435.7,286046998.3,N
1538074455.5,286046998.5,N
1538074475.4,286046996.9,N
1538074495.2,286046999.3,N
1538074515.1,286046996.5,N
1538074516.0,286046996.5,N
1538074535.8,286046998.8,N
1538074555.6,286046996.6,N
1538074575.5,286046999.4,N
1538074595.3,286046996.5,N
1538074615.1,286046999.5,N
1538074635.9,286046996.9,N
1538074655.7,286046996.9,N
1538074675.6,286046999.0,N
1538074695.4,286046996.9,N
1538074715.2,286046997.0,N
1538074735.1,286047000.8,N
1538074736.0,286047000.8,N
1538074755.8,286046999.9,N
1538074775.6,286047002.3,N
1538074795.5,286047002.2,N
